TimePDT,TemperatureF,Dew PointF,Humidity,Sea Level PressureIn,VisibilityMPH,Wind Direction,Wind SpeedMPH,Gust SpeedMPH,PrecipitationIn,Events,Conditions,WindDirDegrees,DateUTC
12:53 AM,54.0,19.0,25,30.09,10.0,SSW,11.5,18.4,N/A,,Clear,210,2014-04-09 07:53:00
1:53 AM,52.0,18.0,26,30.09,10.0,SSW,8.1,-,N/A,,Clear,210,2014-04-09 08:53:00
2:53 AM,43.0,23.0,45,30.10,10.0,South,6.9,-,N/A,,Clear,190,2014-04-09 09:53:00
3:53 AM,39.9,23.0,51,30.10,10.0,Calm,Calm,-,N/A,,Clear,0,2014-04-09 10:53:00
5:53 AM,34.0,24.1,67,30.12,10.0,Calm,Calm,-,N/A,,Clear,0,2014-04-09 12:53:00
6:53 AM,33.1,24.1,70,30.15,10.0,Calm,Calm,-,N/A,,Clear,0,2014-04-09 13:53:00
7:53 AM,35.1,25.0,67,30.17,10.0,Calm,Calm,-,N/A,,Clear,0,2014-04-09 14:53:00
8:53 AM,45.0,27.0,49,30.14,10.0,Calm,Calm,-,N/A,,Clear,0,2014-04-09 15:53:00
9:53 AM,57.9,25.0,28,30.10,10.0,SSW,10.4,-,N/A,,Clear,200,2014-04-09 16:53:00
10:53 AM,61.0,23.0,23,30.09,10.0,SSW,10.4,19.6,N/A,,Clear,210,2014-04-09 17:53:00
11:53 AM,63.0,21.0,20,30.06,10.0,South,15.0,23.0,N/A,,Clear,180,2014-04-09 18:53:00
12:53 PM,64.0,21.0,19,30.05,10.0,WSW,9.2,18.4,N/A,,Clear,250,2014-04-09 19:53:00
1:53 PM,64.0,24.1,22,30.04,10.0,SSW,10.4,21.9,N/A,,Clear,210,2014-04-09 20:53:00
2:53 PM,63.0,25.0,24,30.06,9.0,SSW,12.7,21.9,N/A,,Clear,210,2014-04-09 21:53:00
3:53 PM,64.0,24.1,22,30.06,10.0,SSW,11.5,20.7,N/A,,Clear,210,2014-04-09 22:53:00
4:53 PM,63.0,25.0,24,30.06,10.0,Calm,Calm,-,N/A,,Clear,0,2014-04-09 23:53:00
5:53 PM,61.0,26.1,26,30.07,10.0,South,9.2,-,N/A,,Clear,190,2014-04-10 00:53:00
6:53 PM,57.9,30.0,35,30.08,10.0,SSW,9.2,-,N/A,,Clear,210,2014-04-10 01:53:00
7:53 PM,54.0,33.1,45,30.09,10.0,North,-9999.0,-,N/A,,Clear,0,2014-04-10 02:53:00
8:53 PM,52.0,34.0,50,30.08,10.0,South,5.8,-,N/A,,Clear,170,2014-04-10 03:53:00
9:53 PM,48.9,32.0,52,30.07,10.0,Calm,Calm,-,N/A,,Clear,0,2014-04-10 04:53:00
10:53 PM,44.1,32.0,63,30.07,10.0,Calm,Calm,-,N/A,,Clear,0,2014-04-10 05:53:00
11:53 PM,41.0,28.9,62,30.08,10.0,Calm,Calm,-,N/A,,Clear,0,2014-04-10 06:53:00